Regional Weather Roundup
Issued by NWS Memphis, TN

Home | Current Version | Previous Version | Text Only | Print | Product List | Glossary On
Versions: 1 2 3 4 5 6 7 8 9 10 11 12 13 14 15 16 17 18 19 20 21 22 23 24 25 26 27 28 29 30 31 32 33 34 35 36 37 38 39 40 41 42 43 44 45 46 47 48 49 50
000
ASUS44 KMEG 240810
RWRMEG
MEMPHIS CWA HOURLY WEATHER ROUNDUP
NATIONAL WEATHER SERVICE MEMPHIS TN
300 AM CDT FRI OCT 24 2014

...WEST TENNESSEE...

CITY           SKY/WX    TMP DP  RH WIND       PRES   REMARKS
MEMPHIS INTL   PTCLDY    51  47  86 CALM      30.13F
NWS MEMPHIS      N/A     47 N/A N/A MISG        N/A
JACKSON        MOCLDY    46  43  89 CALM      30.13S
LEXINGTON      CLEAR     45  45 100 CALM      30.11S
SAVANNAH       CLEAR     45  45 100 CALM      30.13S
DYERSBURG      CLEAR     45  34  65 CALM      30.16R
UNION CITY     CLEAR     41  39  93 CALM      30.13R
PARIS            N/A     37  37 100 CALM      30.13R VSB 1/2
HUNTINGDON     PTCLDY    40  39  96 CALM      30.13S


...EASTERN ARKANSAS...

CITY           SKY/WX    TMP DP  RH WIND       PRES   REMARKS
JONESBORO      CLEAR     45  45 100 CALM      30.14S
WEST MEMPHIS   FOG       45  45 100 CALM      30.13S VSB 1/2
BATESVILLE     CLEAR     46  45  93 CALM      30.14F
NEWPORT        FOG       46  46 100 CALM      30.16S VSB 1/2
WALNUT RIDGE   CLEAR     46  41  81 CALM      30.15S
BLYTHEVILLE    CLEAR     43  42  97 CALM      30.15R
SEARCY         CLEAR     46  46 100 CALM      30.17S FOG
STUTTGART      CLEAR     48  46  93 NW3       30.15F
PINE BLUFF     CLEAR     47  44  90 CALM      30.15S
MONTICELLO     CLEAR     45  43  93 CALM      30.15R


...NORTH MISSISSIPPI...

CITY           SKY/WX    TMP DP  RH WIND       PRES   REMARKS
TUPELO         CLOUDY    53  47  79 CALM      30.11R
OXFORD         CLOUDY    48  46  93 CALM      30.14R
OLIVE BRANCH   CLEAR     48  48 100 CALM      30.13F
TUNICA         PTCLDY    46  45  93 CALM      30.15S
CLARKSDALE     PTCLDY    46  46 100 CALM      30.14S
CORINTH        CLOUDY    50  46  87 NW3       30.12S
GRENADA          N/A    N/A N/A N/A MISG        N/A
GREENWOOD      MOCLDY    48  47  96 CALM      30.13S
COLUMBUS       CLOUDY    53  51  92 W6        30.11R
STARKVILLE     FAIR      50  50 100 CALM      30.11R
GOLDEN TRIANGL MOCLDY    52  46  82 CALM      30.10R


...SOUTHEAST MISSOURI...

CITY           SKY/WX    TMP DP  RH WIND       PRES   REMARKS
WEST PLAINS    CLEAR     48  45  89 CALM      30.13S
POPLAR BLUFF   PTCLDY    45  42  89 CALM      30.13S FOG
CAPE GIRARDEAU CLOUDY    48  46  93 CALM      30.13S


...NORTHWEST ALABAMA...

CITY           SKY/WX    TMP DP  RH WIND       PRES   REMARKS
MUSCLE SHOALS  CLOUDY    53  48  83 NW3       30.11S


...MIDDLE TENNESSEE...

CITY           SKY/WX    TMP DP  RH WIND       PRES   REMARKS
NASHVILLE      CLOUDY    50  46  86 S3        30.11S
CLARKSVILLE    MOCLDY    49  45  86 CALM      30.11S
COLUMBIA         N/A    N/A N/A N/A CALM      30.09S


...WESTERN KENTUCKY...

CITY           SKY/WX    TMP DP  RH WIND       PRES   REMARKS
PADUCAH        CLEAR     40  39  97 W6        30.13R FOG
FORT CAMPBELL  CLOUDY    48  48 100 W3        30.12R


...CENTRAL ARKANSAS...

CITY           SKY/WX    TMP DP  RH WIND       PRES   REMARKS
LITTLE ROCK    PTCLDY    50  46  86 CALM      30.16S


SKY/WX REPORTED AS FAIR MEANS FEW OR NO CLOUDS BELOW
12 THOUSAND FEET.




USA.gov is the U.S. government's official web portal to all federal, state and local government web resources and services.